Back to catalog

NADEZHDA 4

AliveCommunicationsPO
NORAD 23179·PAYLOAD·🇷🇺 Russia

Launched Jul 14, 1994 from Plesetsk Cosmodrome

Loading…

Next Passes (next 24 hours)

TLE

FreshSource: Space-Track

Epoch: Sep 14, 2026, 10:09 UTC

1 23179U 94041A   26257.42302385  .00000056  00000-0  41764-4 0  9996
2 23179  82.9485 320.7682 0034809 197.8458 172.8805 13.76818817615805

Track NADEZHDA 4 in real time with AllMySat

Download on the App Store